{"data":{"norad_id":67201,"intl_designator":"2025-304K","name":"STARLINK-36262","alt_names":[],"object_type":"PAYLOAD","status":"ACTIVE","operator":null,"country":"US","launch_date":"2025-12-17","launch_site_code":"AFWTR","launch_vehicle":null,"mission":null,"orbit_class":"UNKNOWN","rcs_meters":null,"size_class":null,"mass_kg":null,"dimensions":null,"purposes":["comms"],"wikipedia_slug":null,"has_3d_model":false,"image_url":null,"decayed_at":null,"tle_current":{"epoch":"2026-09-20T13:56:18.290400Z","epoch_age_seconds":71202,"freshness":"FRESH","line1":"1 67201U 25304K   26263.58076725  .00003479  00000+0  29912-3 0  9997","line2":"2 67201  70.0016  43.2230 0002979 264.6743  95.4076 14.98341243 43079","mean_motion":14.98341243,"eccentricity":0.0002979,"inclination_deg":70.0016,"raan_deg":43.223,"arg_perigee_deg":264.6743,"mean_anomaly_deg":95.4076,"bstar":0.00029912,"rev_number":4307,"period_min":96.106277974222,"perigee_km":569.95067100689,"apogee_km":574.09157521664,"semimajor_km":6950.1581231118,"source":"CELESTRAK","updated_at":"2026-09-21T09:00:36.136948Z"}}}